EW6058 Weather Reports


Display with metric or nautical units.
time (UTC)temp
F
wind
direction
speed
MPH
gust
MPH
rain 1hr
in
rain 24hr
in
rain mn
in
humidity
%
barometer
mb
20260903152017 71 1 0.0 0.0 0.00 0.86 0.86 96 1014.2
20260903151529 71 1 0.0 0.0 0.00 0.86 0.86 97 1014.3
20260903151014 71 1 0.0 0.0 0.00 0.86 0.86 96 1014.2
20260903150508 71 1 0.0 0.0 0.00 0.86 0.86 96 1014.4
20260903150018 71 1 0.0 0.0 0.00 0.86 0.86 96 1014.4
20260903145512 70 1 0.0 0.0 0.00 0.86 0.86 96 1014.4
20260903145014 70 1 0.0 0.0 0.00 0.86 0.86 96 1014.6
20260903144539 70 1 0.0 0.0 0.00 0.86 0.86 96 1014.5
20260903144013 70 1 0.0 0.0 0.00 0.86 0.86 96 1014.6
20260903143515 70 1 0.0 0.0 0.00 0.86 0.86 96 1014.8
20260903143044 70 1 0.0 0.0 0.00 0.86 0.86 96 1014.9
20260903142515 69 1 0.0 0.0 0.00 0.86 0.86 96 1015.2
20260903142018 69 1 0.0 0.0 0.00 0.86 0.86 96 1015.2
20260903141534 69 1 0.0 0.0 0.01 0.86 0.86 96 1015.1
20260903141020 69 1 0.0 0.0 0.01 0.86 0.86 96 1015.2
20260903140515 69 1 0.0 0.0 0.01 0.86 0.86 96 1015.2
20260903140040 69 1 0.0 0.0 0.01 0.86 0.86 96 1015.2
20260903135518 69 1 0.0 0.0 0.01 0.86 0.86 96 1015.2
20260903135008 69 1 0.0 0.0 0.01 0.86 0.86 96 1015.2
20260903134518 69 1 0.0 0.0 0.02 0.86 0.86 96 1015.2
20260903134011 69 1 0.0 0.0 0.02 0.86 0.86 96 1015.2
20260903133516 69 1 0.0 0.0 0.03 0.86 0.86 96 1015.1
20260903133023 69 305 0.0 0.0 0.03 0.86 0.86 96 1015.2
20260903132515 68 305 0.0 0.0 0.04 0.86 0.86 96 1015.1
20260903132016 68 305 0.0 0.0 0.05 0.86 0.86 96 1015.1
20260903131529 68 305 0.0 0.0 0.05 0.85 0.85 96 1015.0
20260903131016 68 314 0.0 0.0 0.07 0.85 0.85 96 1014.8
20260903130514 68 4 0.0 0.0 0.09 0.85 0.85 96 1015.0
20260903130032 68 9 0.0 0.0 0.11 0.85 0.85 96 1015.0
20260903125521 67 9 0.0 0.0 0.13 0.85 0.85 96 1014.9
20260903125016 67 238 0.0 0.0 0.13 0.85 0.85 96 1015.0
20260903124533 67 238 0.0 0.0 0.12 0.84 0.84 96 1015.1
20260903124019 67 239 0.0 0.0 0.12 0.84 0.84 96 1015.2
20260903123509 67 238 0.0 0.0 0.12 0.83 0.83 95 1015.4
20260903123021 67 240 0.0 0.0 0.13 0.83 0.83 95 1015.4
20260903122512 67 238 0.0 0.0 0.12 0.82 0.82 95 1015.5
20260903122014 66 246 0.0 0.0 0.13 0.81 0.81 95 1015.5
20260903121532 66 245 0.0 0.0 0.14 0.80 0.80 95 1015.6
20260903121019 66 243 0.0 0.0 0.14 0.78 0.78 95 1015.7
20260903120516 66 243 0.0 0.0 0.14 0.76 0.76 95 1015.8
20260903120042 66 245 0.0 0.0 0.15 0.74 0.74 95 1016.0
20260903115517 66 245 0.0 0.0 0.17 0.72 0.72 95 1016.0
20260903115016 66 243 0.0 0.0 0.20 0.72 0.72 95 1016.2
20260903114533 66 243 0.0 0.0 0.22 0.72 0.72 95 1016.3
20260903114017 66 244 0.0 0.0 0.24 0.72 0.72 95 1016.3
20260903113516 66 243 0.0 0.0 0.26 0.71 0.71 95 1016.4
20260903113058 66 267 0.0 0.0 0.28 0.70 0.70 95 1016.5
20260903112517 66 267 0.0 0.0 0.32 0.70 0.70 94 1016.4
20260903112015 66 243 0.0 0.0 0.42 0.68 0.68 94 1016.4
20260903111523 66 248 0.0 0.0 0.40 0.66 0.66 94 1016.4
20260903111019 66 259 0.0 0.0 0.40 0.64 0.64 94 1016.4
20260903110502 66 248 0.0 0.0 0.44 0.62 0.62 94 1016.5
20260903110006 66 242 0.0 0.0 0.46 0.58 0.58 94 1016.5
20260903105503 66 242 0.0 0.0 0.46 0.55 0.55 94 1016.4
20260903105006 66 238 0.0 0.0 0.48 0.52 0.52 94 1016.2
20260903104510 66 238 0.0 0.0 0.50 0.50 0.50 94 1016.2
20260903104005 66 237 0.0 0.0 0.48 0.48 0.48 94 1016.3
20260903103507 66 237 0.0 0.0 0.45 0.45 0.45 93 1016.3
20260903103013 66 238 0.0 0.0 0.42 0.42 0.42 93 1016.2
20260903102510 66 238 0.0 0.0 0.38 0.38 0.38 93 1016.0
20260903102013 66 238 0.0 0.0 0.26 0.26 0.26 93 1015.8
20260903101525 66 238 0.0 0.0 0.26 0.26 0.26 92 1016.2
20260903101014 66 238 0.0 0.0 0.24 0.24 0.24 1016.2
20260903100512 66 238 0.0 0.0 0.18 0.18 0.18 91 1016.3
20260903100036 67 236 0.0 0.0 0.13 0.13 0.13 91 1016.3
20260903095515 67 234 0.0 0.0 0.09 0.09 0.09 91 1016.5
20260903095002 67 233 0.0 0.0 0.04 0.04 0.04 90 1016.5
20260903094520 67 231 0.0 0.0 0.00 0.00 0.00 89 1016.3
20260903094004 67 240 0.0 0.0 0.00 0.00 0.00 89 1015.9
20260903093508 67 248 0.0 0.0 0.00 0.00 0.00 89 1015.9
20260903093009 67 252 0.0 0.0 0.00 0.00 0.00 89 1015.9
20260903092508 67 257 0.0 0.0 0.00 0.00 0.00 89 1016.0
20260903092008 67 257 0.0 0.0 0.00 0.00 0.00 89 1016.1
20260903091518 67 240 0.0 0.0 0.00 0.00 0.00 89 1016.1
20260903091010 67 262 0.0 0.0 0.00 0.00 0.00 89 1016.2
20260903090514 66 300 0.0 0.0 0.00 0.00 0.00 1016.3
20260903090023 67 237 0.0 0.0 0.00 0.00 0.00 90 1016.3
20260903085516 67 240 0.0 0.0 0.00 0.00 0.00 90 1016.4
20260903085017 67 240 0.0 0.0 0.00 0.00 0.00 90 1016.6
20260903084529 67 265 0.0 0.0 0.00 0.00 0.00 89 1016.6
20260903084016 67 310 0.0 0.0 0.00 0.00 0.00 89 1016.6
20260903083507 67 310 0.0 0.0 0.00 0.00 0.00 89 1016.6
20260903083011 67 310 0.0 0.0 0.00 0.00 0.00 89 1016.8
20260903082507 67 264 0.0 0.0 0.00 0.00 0.00 89 1016.8
20260903082009 67 281 0.0 0.0 0.00 0.00 0.00 89 1016.7
20260903081515 67 294 0.0 0.0 0.00 0.00 0.00 89 1016.7
20260903081008 67 295 0.0 0.0 0.00 0.00 0.00 89 1016.7
20260903080510 67 271 0.0 0.0 0.00 0.00 0.00 89 1016.8
20260903080020 66 271 0.0 0.0 0.00 0.00 0.00 88 1016.9
20260903075512 66 308 0.0 0.0 0.00 0.00 0.00 88 1016.8
20260903075012 66 274 0.0 0.0 0.00 0.00 0.00 89 1016.8
20260903074531 66 282 0.0 0.0 0.00 0.00 0.00 89 1016.8
20260903074013 66 291 0.0 0.0 0.00 0.00 0.00 89 1016.8
20260903073516 66 297 0.0 0.0 0.00 0.00 0.00 89 1016.9
20260903073033 66 281 0.0 0.0 0.00 0.00 0.00 90 1017.0
20260903072514 66 300 0.0 0.0 0.00 0.00 0.00 90 1017.1
20260903072007 65 300 0.0 0.0 0.00 0.00 0.00 90 1017.1
20260903071509 65 293 0.0 0.0 0.00 0.00 0.00 91 1017.3
20260903071010 65 299 0.0 0.0 0.00 0.00 0.00 91 1017.5
20260903070510 65 299 0.0 0.0 0.00 0.00 0.00 91 1017.6
20260903070019 65 285 0.0 0.0 0.00 0.00 0.00 91 1017.7
20260903065512 64 207 0.0 0.0 0.00 0.00 0.00 92 1017.7
20260903065011 64 207 0.0 0.0 0.00 0.00 0.00 91 1017.5
20260903064525 64 231 0.0 0.0 0.00 0.00 0.00 92 1017.8
20260903064013 64 201 0.0 0.0 0.00 0.00 0.00 92 1017.9
20260903063516 64 200 0.0 0.0 0.00 0.00 0.00 92 1018.0
20260903063027 63 200 0.0 0.0 0.00 0.00 0.00 92 1018.1
20260903062516 63 235 0.0 0.0 0.00 0.00 0.00 92 1018.2
20260903062018 63 235 0.0 0.0 0.00 0.00 0.00 92 1018.3
20260903061530 62 237 0.0 0.0 0.00 0.00 0.00 92 1018.2
20260903061022 62 236 0.0 0.0 0.00 0.00 0.00 92 1018.3
20260903060510 62 236 0.0 0.0 0.00 0.00 0.00 92 1018.4
20260903060014 62 236 0.0 0.0 0.00 0.00 0.00 92 1018.3
20260903055510 62 236 0.0 0.0 0.00 0.00 0.00 92 1018.5
20260903055014 62 236 0.0 0.0 0.00 0.00 0.00 92 1018.6
20260903054518 62 236 0.0 0.0 0.00 0.00 0.00 91 1018.5
20260903054014 62 236 0.0 0.0 0.00 0.00 0.00 91 1018.6
20260903053516 62 236 0.0 0.0 0.00 0.00 0.00 91 1018.8
20260903053025 62 236 0.0 0.0 0.00 0.00 0.00 91 1019.1
20260903052515 62 236 0.0 0.0 0.00 0.00 0.00 91 1019.3
20260903052016 62 236 0.0 0.0 0.00 0.00 0.00 90 1019.3
20260903051548 62 236 0.0 0.0 0.00 0.00 0.00 90 1019.3
20260903051021 62 236 0.0 0.0 0.00 0.00 0.00 90 1019.2
20260903050519 62 236 0.0 0.0 0.00 0.00 0.00 90 1019.3
20260903050038 62 236 0.0 0.0 0.00 0.00 0.00 90 1019.1
20260903045518 62 236 0.0 0.0 0.00 0.00 0.00 90 1019.3
20260903045009 62 236 0.0 0.0 0.00 0.00 0.00 90 1019.3
20260903044516 62 236 0.0 0.0 0.00 0.00 0.00 90 1019.3
20260903044011 62 236 0.0 0.0 0.00 0.00 0.00 90 1019.4
20260903043512 62 236 0.0 0.0 0.00 0.00 0.00 90 1019.5
20260903043054 62 236 0.0 0.0 0.00 0.00 0.00 90 1019.4
20260903042514 62 236 0.0 0.0 0.00 0.00 0.00 90 1019.2
20260903042016 62 236 0.0 0.0 0.00 0.00 0.00 90 1019.0
20260903041531 61 236 0.0 0.0 0.00 0.00 0.00 89 1018.9
20260903041014 61 236 0.0 0.0 0.00 0.00 0.00 89 1018.9
20260903040518 61 236 0.0 0.0 0.00 0.00 0.00 89 1019.1
20260903040029 61 236 0.0 0.0 0.00 0.00 0.00 89 1019.4
20260903035515 61 237 0.0 0.0 0.00 0.00 0.00 89 1019.4
20260903035017 61 236 0.0 0.0 0.00 0.00 0.00 90 1019.4
20260903034539 61 233 0.0 0.0 0.00 0.00 0.00 90 1019.3
20260903034018 61 233 0.0 0.0 0.00 0.00 0.00 90 1019.4
20260903033510 60 233 0.0 0.0 0.00 0.00 0.00 90 1019.3
20260903033021 60 233 0.0 0.0 0.00 0.00 0.00 90 1019.5
20260903032514 60 233 0.0 0.0 0.00 0.00 0.00 90 1019.7
20260903032017 61 233 0.0 0.0 0.00 0.00 0.00 90 1019.7
20260903031526 60 233 0.0 0.0 0.00 0.00 0.00 90 1019.6
20260903031015 60 233 0.0 0.0 0.00 0.00 0.00 89 1019.6
20260903030516 60 233 0.0 0.0 0.00 0.00 0.00 89 1019.7
20260903030030 60 233 0.0 0.0 0.00 0.00 0.00 89 1019.7
20260903025518 60 233 0.0 0.0 0.00 0.00 0.00 89 1019.7
20260903025017 60 233 0.0 0.0 0.00 0.00 0.00 89 1019.8
20260903024531 61 233 0.0 0.0 0.00 0.00 0.00 90 1019.8
20260903024017 60 233 0.0 0.0 0.00 0.00 0.00 89 1019.5
20260903023519 61 233 0.0 0.0 0.00 0.00 0.00 89 1019.4
20260903023033 61 233 0.0 0.0 0.00 0.00 0.00 89 1019.3
20260903022520 61 233 0.0 0.0 0.00 0.00 0.00 89 1019.6
20260903022013 61 233 0.0 0.0 0.00 0.00 0.00 88 1019.7
20260903021523 61 233 0.0 0.0 0.00 0.00 0.00 88 1019.9
20260903021013 61 233 0.0 0.0 0.00 0.00 0.00 87 1019.9
20260903020502 61 233 0.0 0.0 0.00 0.00 0.00 87 1019.9
20260903020011 61 233 0.0 0.0 0.00 0.00 0.00 87 1020.0
20260903015504 61 233 0.0 0.0 0.00 0.00 0.00 87 1020.2
20260903015004 61 233 0.0 0.0 0.00 0.00 0.00 87 1020.2
20260903014515 62 233 0.0 0.0 0.00 0.00 0.00 87 1020.4
20260903014003 62 233 0.0 0.0 0.00 0.00 0.00 88 1020.3
20260903013506 62 233 0.0 0.0 0.00 0.00 0.00 87 1020.4
20260903013012 62 233 0.0 0.0 0.00 0.00 0.00 88 1020.4
20260903012508 62 233 0.0 0.0 0.00 0.00 0.00 88 1020.3
20260903012010 62 233 0.0 0.0 0.00 0.00 0.00 87 1020.2
20260903011517 62 233 0.0 0.0 0.00 0.00 0.00 87 1020.1
20260903011011 62 233 0.0 0.0 0.00 0.00 0.00 88 1020.1
20260903010512 62 233 0.0 0.0 0.00 0.00 0.00 88 1020.2
20260903010024 62 233 0.0 0.0 0.00 0.00 0.00 88 1020.1
20260903005516 62 233 0.0 0.0 0.00 0.00 0.00 88 1020.2
20260903005004 63 233 0.0 0.0 0.00 0.00 0.00 87 1020.3
20260903004506 63 233 0.0 0.0 0.00 0.00 0.00 87 1020.1
20260903004004 63 233 0.0 0.0 0.00 0.00 0.00 87 1020.1
20260903003503 63 233 0.0 0.0 0.00 0.00 0.00 87 1020.3
20260903003012 63 233 0.0 0.0 0.00 0.00 0.00 87 1020.3
20260903002509 63 233 0.0 0.0 0.00 0.00 0.00 87 1020.4
20260903002009 63 233 0.0 0.0 0.00 0.00 0.00 86 1020.4
20260903001517 63 233 0.0 0.0 0.00 0.00 0.00 86 1020.5
20260903001009 63 233 0.0 0.0 0.00 0.00 0.00 86 1020.5
20260903000511 64 233 0.0 0.0 0.00 0.00 0.00 85 1020.4
20260903000022 64 233 0.0 0.0 0.00 0.00 0.00 85 1020.6
20260902235512 64 233 0.0 0.0 0.00 0.00 0.00 85 1020.7
20260902235018 64 233 0.0 0.0 0.00 0.00 0.00 85 1020.8
20260902234526 64 233 0.0 0.0 0.00 0.00 0.00 85 1020.8
20260902234014 64 233 0.0 0.0 0.00 0.00 0.00 84 1020.7
20260902233508 65 233 0.0 0.0 0.00 0.00 0.00 84 1020.6
20260902233007 65 233 0.0 0.0 0.00 0.00 0.00 83 1020.7
20260902232512 65 233 0.0 0.0 0.00 0.00 0.00 83 1020.7
20260902232008 65 233 0.0 0.0 0.00 0.00 0.00 81 1020.8
20260902231513 0 233 0.0 0.0 0.00 0.00 0.00 81 1020.7
20260902231007 0 233 0.0 0.0 0.00 0.00 0.00 81 1020.8
20260902230511 0 233 0.0 0.0 0.00 0.00 0.00 81 1021.0
20260902230019 0 233 0.0 0.0 0.00 0.00 0.00 81 1021.0
20260902225512 66 233 0.0 0.0 0.00 0.00 0.00 80 1020.9
20260902225015 66 233 0.0 0.0 0.00 0.00 0.00 1020.9
20260902224533 67 233 0.0 0.0 0.00 0.00 0.00 79 1020.8
20260902224014 67 233 0.0 0.0 0.00 0.00 0.00 79 1020.8
20260902223518 67 233 0.0 0.0 0.00 0.00 0.00 79 1020.6
20260902223031 67 233 0.0 0.0 0.00 0.00 0.00 79 1020.8
20260902222516 67 233 0.0 0.0 0.00 0.00 0.00 79 1021.0
20260902222006 67 233 0.0 0.0 0.00 0.00 0.00 78 1021.2
20260902221509 67 233 0.0 0.0 0.00 0.00 0.00 78 1021.2
20260902221010 67 234 0.0 0.0 0.00 0.00 0.00 77 1021.0
20260902220511 67 234 0.0 0.0 0.00 0.00 0.00 77 1020.7
20260902220016 67 235 0.0 0.0 0.00 0.00 0.00 77 1020.8
20260902215510 68 238 0.0 0.0 0.00 0.00 0.00 75 1020.7
20260902215012 68 228 0.0 0.0 0.00 0.01 0.00 76 1020.7
20260902214525 68 228 0.0 0.0 0.00 0.01 0.00 75 1020.9
20260902214012 68 226 0.0 0.0 0.00 0.01 0.00 74 1021.1
20260902213512 68 226 0.0 0.0 0.00 0.01 0.00 74 1021.0
20260902213030 68 222 0.0 0.0 0.00 0.01 0.00 72 1021.0
20260902212514 68 229 0.0 0.0 0.00 0.01 0.00 73 1021.0
20260902212015 68 229 0.0 0.0 0.00 0.01 0.00 72 1021.1
20260902211532 68 229 0.0 0.0 0.00 0.01 0.00 73 1021.1
20260902211018 68 229 0.0 0.0 0.00 0.01 0.00 72 1021.0
20260902210510 68 229 0.0 0.0 0.00 0.01 0.00 70 1021.0
20260902210018 68 229 0.0 0.0 0.00 0.01 0.00 71 1021.0
20260902205509 69 232 0.0 0.0 0.00 0.01 0.00 73 1021.0
20260902205009 69 203 0.0 0.0 0.00 0.02 0.00 70 1021.1
20260902204522 69 212 0.0 0.0 0.00 0.02 0.00 70 1020.8
20260902204014 69 215 0.0 0.0 0.00 0.02 0.00 71 1020.7
20260902203514 69 215 0.0 0.0 0.00 0.02 0.00 69 1020.9
20260902203023 69 214 0.0 0.0 0.00 0.02 0.00 69 1020.9
20260902202516 69 224 0.0 0.0 0.00 0.02 0.00 69 1020.9
20260902202014 69 224 0.0 0.0 0.00 0.02 0.00 66 1020.9
20260902201535 70 223 0.0 0.0 0.00 0.02 0.00 69 1021.1
20260902201016 70 236 0.0 0.0 0.00 0.02 0.00 68 1021.1
20260902200516 70 168 0.0 0.0 0.00 0.02 0.00 69 1021.2
20260902200048 70 87 0.0 0.0 0.00 0.02 0.00 69 1021.3
20260902195515 70 237 0.0 0.0 0.00 0.02 0.00 70 1021.4
20260902195009 70 248 0.0 0.0 0.00 0.02 0.00 68 1021.4
20260902194521 70 141 0.0 0.0 0.00 0.02 0.00 68 1021.4
20260902194012 70 222 0.0 0.0 0.00 0.02 0.00 69 1021.5
20260902193512 70 239 0.0 0.0 0.00 0.02 0.00 69 1021.4
20260902193024 70 214 0.0 0.0 0.00 0.02 0.00 69 1021.5
20260902192514 69 214 0.0 0.0 0.00 0.02 0.00 68 1021.4
20260902192019 69 240 0.0 0.0 0.00 0.02 0.00 68 1021.4
20260902191530 70 245 0.0 0.0 0.00 0.02 0.00 67 1021.4
20260902191013 70 298 0.0 0.0 0.00 0.03 0.00 65 1021.4
20260902190523 70 198 0.0 0.0 0.00 0.03 0.00 65 1021.3
20260902190046 70 202 0.0 0.0 0.00 0.03 0.00 70 1021.3
20260902185516 70 256 0.0 0.0 0.00 0.03 0.00 68 1021.3
20260902185018 70 195 0.0 0.0 0.00 0.04 0.00 66 1021.3
20260902184534 70 235 0.0 0.0 0.00 0.05 0.00 68 1021.4
20260902184017 70 233 0.0 0.0 0.00 0.05 0.00 67 1021.4
20260902183510 70 227 0.0 0.0 0.00 0.05 0.00 70 1021.4
20260902183021 71 219 0.0 0.0 0.00 0.05 0.00 72 1021.4
20260902182510 71 219 0.0 0.0 0.00 0.05 0.00 69 1021.6
20260902182014 71 219 0.0 0.0 0.00 0.05 0.00 67 1021.7
20260902181527 71 219 0.0 0.0 0.00 0.05 0.00 68 1021.7
20260902181015 71 248 0.0 0.0 0.00 0.05 0.00 68 1021.7
20260902180514 71 240 0.0 0.0 0.00 0.05 0.00 67 1021.7
20260902180032 71 202 0.0 0.0 0.00 0.05 0.00 67 1021.6
20260902175518 71 215 0.0 0.0 0.00 0.05 0.00 68 1021.6
20260902175016 71 212 0.0 0.0 0.00 0.05 0.00 66 1021.6
20260902174532 71 170 0.0 0.0 0.00 0.05 0.00 66 1021.5
20260902174017 72 205 0.0 0.0 0.00 0.05 0.00 68 1021.5
20260902173520 72 245 0.0 0.0 0.00 0.05 0.00 70 1021.5
20260902173033 72 243 0.0 0.0 0.00 0.05 0.00 70 1021.5
20260902172509 72 314 0.0 0.0 0.00 0.05 0.00 68 1021.7
20260902172010 71 306 0.0 0.0 0.00 0.05 0.00 69 1021.9
20260902171506 71 206 0.0 0.0 0.00 0.05 0.00 66 1021.7
20260902171010 72 196 0.0 0.0 0.00 0.05 0.00 67 1021.8
20260902170502 72 199 0.0 0.0 0.00 0.05 0.00 65 1021.8
20260902170006 72 170 0.0 0.0 0.00 0.05 0.00 67 1021.8
20260902165503 72 172 0.0 0.0 0.00 0.05 0.00 69 1021.8
20260902165007 72 227 0.0 0.0 0.00 0.05 0.00 67 1021.8
20260902164511 72 240 0.0 0.0 0.00 0.05 0.00 68 1021.7
20260902164006 72 240 0.0 0.0 0.00 0.05 0.00 64 1021.9
20260902163507 73 240 0.0 0.0 0.00 0.05 0.00 67 1021.9
20260902163008 73 193 0.0 0.0 0.00 0.05 0.00 68 1021.9
20260902162505 73 236 0.0 0.0 0.00 0.05 0.00 65 1022.0
20260902162006 73 55 0.0 0.0 0.00 0.05 0.00 66 1022.0
20260902161510 73 257 0.0 0.0 0.00 0.05 0.00 65 1022.2
20260902161006 73 229 0.0 0.0 0.00 0.05 0.00 68 1022.2
20260902160507 73 229 0.0 0.0 0.00 0.05 0.00 66 1022.2
20260902160012 73 251 0.0 0.0 0.00 0.05 0.00 68 1022.2
20260902155503 73 1 0.0 0.0 0.00 0.05 0.00 68 1022.0
20260902155002 73 262 0.0 0.0 0.00 0.05 0.00 66 1022.0
20260902154503 73 263 0.0 0.0 0.00 0.05 0.00 69 1022.1
20260902154006 73 192 0.0 0.0 0.00 0.05 0.00 68 1022.1
20260902153509 73 60 0.0 0.0 0.00 0.05 0.00 66 1022.0
20260902153010 73 240 0.0 0.0 0.00 0.05 0.00 70 1022.0
20260902152508 73 342 0.0 0.0 0.00 0.05 0.00 72 1021.9